Weather History for Andersen AFB, GU

Change the Weather History Date:

Wednesday, February 13, 2013

  Actual Average Record
Temperature  
Mean Temperature 80 °F -  
Max Temperature 84 °F 81 °F 86 °F (1998)
Min Temperature 75 °F 74 °F 73 °F (1998)
Cooling Degree Days 14    
Growing Degree Days 30 (Base 50)    
Moisture  
Dew Point 74 °F    
Average Humidity 85    
Maximum Humidity 94    
Minimum Humidity 74    
Precipitation  
Precipitation 0.08 in - - ()
Sea Level Pressure  
Sea Level Pressure 29.86 in    
Wind  
Wind Speed 20 mph (ENE)    
Max Wind Speed 32 mph    
Max Gust Speed 43 mph    
Visibility 9 miles    
Events Rain    
Averages and records for this station are not official NWS values.
T = Trace of Precipitation, MM = Missing Value Source: NWS Daily Summary

Daily Weather History Graph

Daily Weather History Graph

Search for Another Location

Airport:

Trip Planner

Search our weather history database for the weather conditions in past years. The results will help you decide how hot, cold, wet, or windy it might be!

Date:

Astronomy

Feb. 13, 2013 Rise Set
Actual Time 6:44 AM ChST 6:24 PM ChST
Civil Twilight 6:22 AM ChST 6:46 PM ChST
Nautical Twilight 5:57 AM ChST 7:11 PM ChST
Astronomical Twilight 5:32 AM ChST 7:37 PM ChST
Moon 8:31 AM ChST (2/13) 9:02 PM ChST (2/13)
Length of Visible Light 12h 24m
Length of Day
11h 40m
Waxing Crescent, 9% of the Moon is Illuminated
Feb 13
Waxing Crescent
Feb 18
First Quarter
Feb 26
Full
Mar 5
Last Quarter
Mar 12
New

Hourly Weather History & Observations

Time (ChST) Temp. Heat Index Dew Point Humidity Pressure Visibility Wind Dir Wind Speed Gust Speed Precip Events Conditions
12:33 AM 78.8 °F - 71.6 °F 78% 29.88 in 10.0 mi East 24.2 mph 29.9 mph N/A   Scattered Clouds
12:38 AM 78.8 °F - 71.6 °F 78% 29.88 in 10.0 mi East 21.9 mph - N/A   Mostly Cloudy
12:51 AM 78.8 °F - 71.6 °F 78% 29.88 in 10.0 mi ENE 16.1 mph 23.0 mph N/A   Scattered Clouds
12:55 AM 78.1 °F - 72.5 °F 83% 29.87 in 10.0 mi ENE 20.7 mph 25.3 mph N/A   Scattered Clouds
1:55 AM 77.9 °F - 72.7 °F 84% 29.86 in 10.0 mi ENE 19.6 mph 28.8 mph N/A   Partly Cloudy
2:19 AM 78.8 °F - 71.6 °F 78% 29.85 in 10.0 mi ENE 20.7 mph 26.5 mph N/A   Mostly Cloudy
2:43 AM 78.8 °F - 73.4 °F 83% 29.85 in 9.0 mi ENE 23.0 mph - N/A Rain Light Rain
2:49 AM 77.0 °F - 73.4 °F 89% 29.85 in 3.0 mi ENE 29.9 mph 42.6 mph N/A Rain Light Rain
2:51 AM 75.2 °F - 73.4 °F 94% 29.85 in 2.5 mi ENE 29.9 mph 42.6 mph N/A Rain Light Rain
2:53 AM 75.2 °F - 73.4 °F 94% 29.86 in 2.5 mi ENE 24.2 mph 42.6 mph N/A   Mostly Cloudy
2:55 AM 75.4 °F - 73.4 °F 94% 29.86 in 2.5 mi ENE 29.9 mph 42.6 mph 0.04 in   Mostly Cloudy
2:57 AM 75.2 °F - 73.4 °F 94% 29.86 in 3.0 mi ENE 32.2 mph 42.6 mph N/A   Mostly Cloudy
2:58 AM 75.2 °F - 73.4 °F 94% 29.86 in 4.0 mi ENE 29.9 mph 40.3 mph N/A Rain Light Rain
3:08 AM 75.2 °F - 71.6 °F 89% 29.85 in 9.0 mi ENE 23.0 mph 31.1 mph N/A   Overcast
3:15 AM 75.2 °F - 71.6 °F 89% 29.84 in 10.0 mi ENE 19.6 mph 26.5 mph N/A   Overcast
3:55 AM 76.6 °F - 72.3 °F 86% 29.84 in 10.0 mi East 23.0 mph 28.8 mph 0.00 in   Overcast
4:01 AM 77.0 °F - 73.4 °F 89% 29.84 in 10.0 mi ENE 16.1 mph - N/A   Mostly Cloudy
4:37 AM 77.0 °F - 73.4 °F 89% 29.84 in 7.0 mi ENE 21.9 mph 27.6 mph N/A Rain Light Rain
4:55 AM 75.2 °F - 72.1 °F 90% 29.84 in 7.0 mi East 21.9 mph 33.4 mph 0.02 in   Light Drizzle
5:00 AM 75.2 °F - 71.6 °F 89% 29.85 in 10.0 mi ENE 19.6 mph 29.9 mph N/A   Overcast
5:10 AM 75.2 °F - 73.4 °F 94% 29.85 in 10.0 mi ENE 15.0 mph 26.5 mph N/A   Mostly Cloudy
5:16 AM 75.2 °F - 73.4 °F 94% 29.84 in 10.0 mi ENE 17.3 mph 25.3 mph N/A   Mostly Cloudy
5:22 AM 77.0 °F - 73.4 °F 89% 29.85 in 10.0 mi ENE 20.7 mph 25.3 mph N/A   Mostly Cloudy
5:25 AM 77.0 °F - 73.4 °F 89% 29.85 in 10.0 mi ENE 20.7 mph - N/A   Mostly Cloudy
5:29 AM 77.0 °F - 73.4 °F 89% 29.84 in 10.0 mi ENE 20.7 mph 28.8 mph N/A   Mostly Cloudy
5:30 AM 77.0 °F - 73.4 °F 89% 29.84 in 10.0 mi ENE 20.7 mph 28.8 mph N/A   Mostly Cloudy
5:31 AM 77.0 °F - 73.4 °F 89% 29.85 in 10.0 mi ENE 17.3 mph 28.8 mph N/A   Mostly Cloudy
5:32 AM 77.0 °F - 73.4 °F 89% 29.85 in 10.0 mi ENE 16.1 mph 28.8 mph N/A   Mostly Cloudy
5:33 AM 77.0 °F - 73.4 °F 89% 29.85 in 10.0 mi ENE 16.1 mph 28.8 mph N/A   Mostly Cloudy
5:36 AM 77.0 °F - 73.4 °F 89% 29.85 in 10.0 mi ENE 19.6 mph 28.8 mph N/A   Mostly Cloudy
5:37 AM 77.0 °F - 73.4 °F 89% 29.85 in 10.0 mi ENE 19.6 mph 28.8 mph N/A   Mostly Cloudy
5:39 AM 77.0 °F - 73.4 °F 89% 29.85 in 10.0 mi ENE 18.4 mph 26.5 mph N/A   Mostly Cloudy
5:50 AM 77.0 °F - 73.4 °F 89% 29.85 in 10.0 mi ENE 19.6 mph - N/A   Mostly Cloudy
5:55 AM 76.5 °F - 72.9 °F 89% 29.85 in 10.0 mi ENE 18.4 mph - 0.00 in   Mostly Cloudy
5:56 AM 77.0 °F - 73.4 °F 89% 29.85 in 10.0 mi ENE 18.4 mph - N/A   Mostly Cloudy
6:11 AM 77.0 °F - 73.4 °F 89% 29.85 in 10.0 mi ENE 19.6 mph - N/A   Mostly Cloudy
6:24 AM 77.0 °F - 73.4 °F 89% 29.86 in 10.0 mi ENE 18.4 mph 24.2 mph N/A   Mostly Cloudy
6:35 AM 77.0 °F - 73.4 °F 89% 29.86 in 10.0 mi ENE 20.7 mph 25.3 mph N/A   Mostly Cloudy
6:37 AM 77.0 °F - 73.4 °F 89% 29.86 in 10.0 mi ENE 19.6 mph 25.3 mph N/A   Mostly Cloudy
6:55 AM 77.0 °F - 72.7 °F 86% 29.86 in 10.0 mi ENE 19.6 mph - N/A   Scattered Clouds
7:55 AM 78.8 °F - 71.8 °F 79% 29.88 in 10.0 mi East 15.0 mph 25.3 mph N/A   Scattered Clouds
8:15 AM 78.8 °F - 71.6 °F 78% 29.88 in 7.0 mi East 17.3 mph 25.3 mph N/A Rain Light Rain
8:24 AM 77.0 °F - 73.4 °F 89% 29.88 in 9.0 mi ENE 17.3 mph - N/A   Scattered Clouds
8:55 AM 79.0 °F - 73.6 °F 83% 29.89 in 10.0 mi ENE 19.6 mph - 0.01 in   Partly Cloudy
9:55 AM 78.8 °F - 71.8 °F 79% 29.90 in 10.0 mi East 17.3 mph - N/A   Mostly Cloudy
9:59 AM 78.8 °F - 71.6 °F 78% 29.90 in 10.0 mi East 17.3 mph - N/A   Mostly Cloudy
10:09 AM 78.8 °F - 73.4 °F 83% 29.90 in 10.0 mi East 15.0 mph - N/A   Mostly Cloudy
10:55 AM 79.9 °F - 74.1 °F 82% 29.89 in 7.0 mi ENE 17.3 mph - 0.00 in Rain Light Rain
10:56 AM 78.8 °F - 75.2 °F 89% 29.89 in 6.0 mi East 16.1 mph - N/A Rain Light Rain
10:58 AM 78.8 °F - 75.2 °F 89% 29.89 in 6.0 mi ENE 16.1 mph - N/A Rain Light Rain
11:03 AM 78.8 °F - 75.2 °F 89% 29.89 in 7.0 mi East 13.8 mph - N/A   Scattered Clouds
11:54 AM 82.4 °F 89.5 °F 75.2 °F 79% 29.87 in 10.0 mi ENE 17.3 mph 24.2 mph N/A   Mostly Cloudy
11:55 AM 81.9 °F 88.2 °F 74.7 °F 79% 29.87 in 10.0 mi East 17.3 mph 24.2 mph 0.00 in   Mostly Cloudy
12:03 PM 82.4 °F 89.5 °F 75.2 °F 79% 29.87 in 10.0 mi ENE 15.0 mph - N/A   Mostly Cloudy
12:04 PM 82.4 °F 89.5 °F 75.2 °F 79% 29.87 in 10.0 mi ENE 15.0 mph - N/A   Mostly Cloudy
12:05 PM 82.4 °F 89.5 °F 75.2 °F 79% 29.86 in 10.0 mi ENE 18.4 mph 24.2 mph N/A   Mostly Cloudy
12:09 PM 82.4 °F 89.5 °F 75.2 °F 79% 29.86 in 10.0 mi ENE 18.4 mph 24.2 mph N/A   Scattered Clouds
12:12 PM 84.2 °F 92.3 °F 75.2 °F 74% 29.86 in 10.0 mi East 17.3 mph 24.2 mph N/A   Mostly Cloudy
12:14 PM 84.2 °F 92.3 °F 75.2 °F 74% 29.87 in 10.0 mi ENE 18.4 mph 24.2 mph N/A   Scattered Clouds
12:35 PM 78.8 °F - 75.2 °F 89% 29.86 in 6.0 mi ENE 18.4 mph 31.1 mph N/A   Light Drizzle
12:36 PM 78.8 °F - 75.2 °F 89% 29.86 in 6.0 mi ENE 16.1 mph 31.1 mph N/A   Light Drizzle
12:39 PM 78.8 °F - 75.2 °F 89% 29.86 in 6.0 mi ENE 17.3 mph 31.1 mph N/A   Light Drizzle
12:42 PM 78.8 °F - 73.4 °F 83% 29.86 in 6.0 mi ENE 16.1 mph - N/A   Haze
12:55 PM 80.1 °F 84.8 °F 74.7 °F 83% 29.86 in 10.0 mi ENE 18.4 mph - 0.00 in   Partly Cloudy
1:39 PM 82.4 °F 89.5 °F 75.2 °F 79% 29.84 in 10.0 mi ENE 16.1 mph 21.9 mph N/A   Mostly Cloudy
1:45 PM 82.4 °F 89.5 °F 75.2 °F 79% 29.84 in 10.0 mi ENE 16.1 mph - N/A   Scattered Clouds
1:55 PM 82.9 °F 89.9 °F 74.8 °F 76% 29.84 in 10.0 mi ENE 17.3 mph 23.0 mph N/A   Scattered Clouds
2:03 PM 84.2 °F 92.3 °F 75.2 °F 74% 29.84 in 10.0 mi ENE 18.4 mph 24.2 mph N/A   Mostly Cloudy
2:09 PM 82.4 °F 89.5 °F 75.2 °F 79% 29.83 in 10.0 mi East 16.1 mph 24.2 mph N/A   Scattered Clouds
2:17 PM 82.4 °F 89.5 °F 75.2 °F 79% 29.83 in 10.0 mi ENE 17.3 mph - N/A   Mostly Cloudy
2:31 PM 82.4 °F 89.5 °F 75.2 °F 79% 29.83 in 6.0 mi ENE 18.4 mph 21.9 mph N/A Rain Light Rain
2:44 PM 78.8 °F - 75.2 °F 89% 29.83 in 10.0 mi ENE 13.8 mph - N/A   Mostly Cloudy
2:45 PM 78.8 °F - 75.2 °F 89% 29.83 in 10.0 mi ENE 15.0 mph - N/A   Mostly Cloudy
2:47 PM 78.8 °F - 75.2 °F 89% 29.83 in 10.0 mi ENE 16.1 mph - N/A   Mostly Cloudy
2:55 PM 80.2 °F 85.4 °F 75.0 °F 84% 29.83 in 10.0 mi East 16.1 mph - 0.01 in   Mostly Cloudy
3:30 PM 80.6 °F 86.2 °F 75.2 °F 84% 29.82 in 7.0 mi ENE 19.6 mph 27.6 mph N/A Rain Light Rain
3:31 PM 80.6 °F 86.2 °F 75.2 °F 84% 29.82 in 6.0 mi East 19.6 mph 27.6 mph N/A   Light Drizzle
3:32 PM 80.6 °F 86.2 °F 75.2 °F 84% 29.82 in 6.0 mi East 18.4 mph 27.6 mph N/A   Light Drizzle
3:40 PM 78.8 °F - 73.4 °F 83% 29.82 in 9.0 mi ENE 15.0 mph - N/A   Scattered Clouds
3:42 PM 78.8 °F - 73.4 °F 83% 29.82 in 10.0 mi East 15.0 mph - N/A   Mostly Cloudy
3:46 PM 78.8 °F - 73.4 °F 83% 29.82 in 10.0 mi East 15.0 mph - N/A   Scattered Clouds
3:55 PM 79.5 °F - 73.9 °F 83% 29.82 in 10.0 mi East 15.0 mph - 0.00 in   Scattered Clouds
4:48 PM 78.8 °F - 73.4 °F 83% 29.83 in 10.0 mi ENE 15.0 mph - N/A   Mostly Cloudy
4:55 PM 78.8 °F - 73.0 °F 82% 29.83 in 10.0 mi ENE 13.8 mph - N/A   Mostly Cloudy
4:59 PM 78.8 °F - 73.4 °F 83% 29.83 in 10.0 mi ENE 12.7 mph - N/A   Mostly Cloudy
5:47 PM 78.8 °F - 73.4 °F 83% 29.83 in 10.0 mi ENE 19.6 mph - N/A   Mostly Cloudy
5:55 PM 79.2 °F - 73.6 °F 83% 29.83 in 10.0 mi ENE 17.3 mph - N/A   Mostly Cloudy
6:02 PM 78.8 °F - 73.4 °F 83% 29.83 in 10.0 mi ENE 18.4 mph 23.0 mph N/A   Mostly Cloudy
6:14 PM 78.8 °F - 73.4 °F 83% 29.83 in 10.0 mi ENE 18.4 mph - N/A   Mostly Cloudy
6:55 PM 77.9 °F - 73.2 °F 85% 29.84 in 10.0 mi ENE 17.3 mph 24.2 mph N/A   Scattered Clouds
7:10 PM 78.8 °F - 73.4 °F 83% 29.84 in 10.0 mi ENE 15.0 mph 25.3 mph N/A   Mostly Cloudy
7:12 PM 78.8 °F - 73.4 °F 83% 29.84 in 10.0 mi ENE 17.3 mph 25.3 mph N/A   Scattered Clouds
7:13 PM 78.8 °F - 73.4 °F 83% 29.84 in 10.0 mi ENE 19.6 mph 25.3 mph N/A   Mostly Cloudy
7:55 PM 78.3 °F - 73.9 °F 87% 29.85 in 10.0 mi ENE 16.1 mph 24.2 mph N/A   Mostly Cloudy
8:08 PM 78.8 °F - 73.4 °F 83% 29.85 in 10.0 mi ENE 18.4 mph 28.8 mph N/A   Mostly Cloudy
8:10 PM 78.8 °F - 73.4 °F 83% 29.86 in 10.0 mi ENE 18.4 mph 28.8 mph N/A   Mostly Cloudy
8:26 PM 78.8 °F - 73.4 °F 83% 29.86 in 10.0 mi ENE 18.4 mph 24.2 mph N/A   Mostly Cloudy
8:55 PM 78.4 °F - 73.9 °F 86% 29.87 in 10.0 mi NE 16.1 mph 24.2 mph N/A   Mostly Cloudy
9:09 PM 77.0 °F - 75.2 °F 94% 29.87 in 10.0 mi East 18.4 mph 31.1 mph N/A   Overcast
9:12 PM 77.0 °F - 73.4 °F 89% 29.87 in 10.0 mi East 18.4 mph 31.1 mph N/A   Overcast
9:16 PM 77.0 °F - 73.4 °F 89% 29.87 in 10.0 mi East 20.7 mph 29.9 mph N/A   Overcast
9:18 PM 77.0 °F - 73.4 °F 89% 29.87 in 10.0 mi East 20.7 mph 29.9 mph N/A   Overcast
9:19 PM 77.0 °F - 73.4 °F 89% 29.88 in 10.0 mi ENE 21.9 mph 28.8 mph N/A   Overcast
9:21 PM 77.0 °F - 73.4 °F 89% 29.88 in 10.0 mi East 20.7 mph 28.8 mph N/A   Overcast
9:38 PM 77.0 °F - 73.4 °F 89% 29.88 in 10.0 mi ENE 21.9 mph 29.9 mph N/A   Mostly Cloudy
9:55 PM 76.6 °F - 72.5 °F 87% 29.88 in 10.0 mi ENE 20.7 mph 27.6 mph N/A   Mostly Cloudy
10:36 PM 78.8 °F - 71.6 °F 78% 29.88 in 10.0 mi ENE 25.3 mph 32.2 mph N/A   Mostly Cloudy
10:47 PM 78.8 °F - 71.6 °F 78% 29.88 in 10.0 mi ENE 20.7 mph 31.1 mph N/A   Mostly Cloudy
10:55 PM 78.6 °F - 72.1 °F 80% 29.88 in 10.0 mi ENE 25.3 mph 31.1 mph N/A   Mostly Cloudy
11:16 PM 78.8 °F - 73.4 °F 83% 29.88 in 10.0 mi ENE 23.0 mph 28.8 mph N/A   Mostly Cloudy
11:30 PM 78.8 °F - 71.6 °F 78% 29.88 in 10.0 mi ENE 24.2 mph 29.9 mph N/A   Scattered Clouds
11:55 PM 78.1 °F - 72.3 °F 82% 29.87 in 10.0 mi ENE 19.6 mph 32.2 mph N/A   Partly Cloudy